Location: Lane
(33.5226°N, 79.8788°W)
Time: 07:24:38
(UTC+00:00)

Tiros 1 despin weight - Pass Details

Date: 06 October 2022
Orbit: 590 x 637 km, 48.2° (Epoch: 28 November)

Event Time Altitude Azimuth Distance (km) Brightness Sun altitude
Rises 03:18:31 0° 300° (WNW) 2,904 - -51.9°
Reaches altitude 10° 03:20:58 10° 291° (WNW) 2,002 - -52.3°
Maximum altitude 03:25:09 35° 226° (SW) 1,020 - -52.9°
Drops below altitude 10° 03:29:22 10° 160° (SSE) 2,010 - -53.5°
Sets 03:31:50 0° 152° (SSE) 2,918 - -53.9°
